Regional Weather Roundup
Issued by NWS

Home | Current Version | Previous Version | Text Only | Print | Product List | Glossary On
Versions: 1 2 3 4 5 6 7 8 9 10 11 12 13 14 15 16 17 18 19 20 21 22 23 24 25 26 27 28 29 30 31 32 33 34 35 36 37 38 39 40 41 42 43 44 45 46 47 48 49 50
000
ASUS43 KTOP 031759
RWRKS

WEATHER ROUNDUP FOR KANSAS
NATIONAL WEATHER SERVICE GOODLAND KS
1200 PM CST SAT DEC 03 2016

NOTE:  "FAIR" INDICATES FEW OR NO CLOUDS BELOW 12,000 FEET WITH NO
SIGNIFICANT WEATHER AND/OR OBSTRUCTIONS TO VISIBILITY.

KSZ001>006-013>018-027>032-041>047-031900-
NORTHWEST KANSAS

CITY           SKY/WX    TMP DP  RH WIND       PRES   REMARKS
GOODLAND       CLOUDY    35  26  69 S12       30.06F WCI  27
6HR MIN TEMP:  20; 6HR MAX TEMP:  35;

HAYS           MIX PCPN  32  31  96 E5        30.18F FOG
HILL CITY      CLOUDY    34  33  96 SE3       30.16F FOG
6HR MIN TEMP:  31; 6HR MAX TEMP:  34; 6HR PCP: TRACE;

RUSSELL        LGT SNOW  32  31  96 NE6       30.17F FOG
6HR MIN TEMP:  32; 6HR MAX TEMP:  33; 6HR PCP:  0.03;

$$

KSZ061>065-074>080-084>089-031900-
SOUTHWEST KANSAS

CITY           SKY/WX    TMP DP  RH WIND       PRES   REMARKS
DODGE CITY     CLOUDY    34  34 100 SE5       30.15F FOG
6HR MIN TEMP:  32; 6HR MAX TEMP:  34; 6HR PCP:  0.05;

ELKHART          N/A     32  26  78 S5          N/A
GARDEN CITY    CLOUDY    34  33  96 S3        30.12F FOG
6HR MIN TEMP:  32; 6HR MAX TEMP:  34; 6HR PCP: TRACE;

GREAT BEND     LGT RAIN  35  33  92 SE5       30.18F FOG
LIBERAL        CLOUDY    36  30  80 CALM      30.13F
$$

KSZ066>073-081>083-090>101-031900-
SOUTHEAST KANSAS

CITY           SKY/WX    TMP DP  RH WIND       PRES   REMARKS
CHANUTE        CLOUDY    51  34  52 S7        30.21F
6HR MIN TEMP:  42; 6HR MAX TEMP:  51;

COFFEYVILLE    PTSUNNY   56  35  45 S15G21    30.21F
6HR MIN TEMP:  43; 6HR MAX TEMP:  56;

HUTCHINSON     LGT RAIN  39  35  86 SE7       30.19F
6HR MIN TEMP:  37; 6HR MAX TEMP:  39; 6HR PCP: TRACE;

MEDICINE LODGE   N/A     39  35  86 CALM      30.17F
NEWTON         LGT RAIN  40  32  73 S5        30.18F
PARSONS        CLOUDY    53  35  50 S6        30.21F
6HR MIN TEMP:  43; 6HR MAX TEMP:  53;

WICHITA JABRA  CLOUDY    43  32  65 S6        30.19F
6HR MIN TEMP:  38; 6HR MAX TEMP:  43; 6HR PCP: TRACE;

WICHITA MCCONL CLOUDY    43  32  65 S3        30.19F
WINFIELD       CLOUDY    45  33  63 S3        30.21F
6HR MIN TEMP:  43; 6HR MAX TEMP:  45;

$$

KSZ007>012-019>026-033>040-048>060-102>105-031900-
NORTHEAST KANSAS

CITY           SKY/WX    TMP DP  RH WIND       PRES   REMARKS
CONCORDIA      LGT SNOW  34  33  96 NE3       30.21F FOG
6HR MIN TEMP:  30; 6HR MAX TEMP:  34; 6HR PCP:  0.04;

EMPORIA        CLOUDY    45  29  53 SE9       30.19F
6HR MIN TEMP:  36; 6HR MAX TEMP:  45;

LAWRENCE       CLOUDY    46  31  55 E13       30.24F
6HR MIN TEMP:  31; 6HR MAX TEMP:  46;

MANHATTAN      LGT RAIN  38  32  79 E7        30.21F
6HR MIN TEMP:  31; 6HR MAX TEMP:  38; 6HR PCP: TRACE;

OLATHE IND     CLOUDY    46  28  49 E12G18    30.23F
6HR MIN TEMP:  36; 6HR MAX TEMP:  46;

OLATHE EXE     CLOUDY    44  28  53 E12       30.23F
6HR MIN TEMP:  34; 6HR MAX TEMP:  45;

SALINA         LGT RAIN  38  33  82 NE5       30.21F
6HR MIN TEMP:  36; 6HR MAX TEMP:  39; 6HR PCP:  0.02;

TOPEKA BILLARD CLOUDY    43  31  62 E8        30.23F
6HR MIN TEMP:  29; 6HR MAX TEMP:  44;

TOPEKA FORBES  CLOUDY    44  31  60 E9        30.22F
6HR MIN TEMP:  33; 6HR MAX TEMP:  45;

$$



USA.gov is the U.S. government's official web portal to all federal, state and local government web resources and services.